• în România
  • Lista ţărilor
  • Pe 7 zile
  • Temperatura apei
  • Hartă satelitară
  • Meteo pe hartă
  • Widget-uri
  • user-avatar
    Intrare

    Meteo pe oră la Gubarevka

    Astăzi, 20 August, Luni

    Timp Temperatura Precipitaţii Vânt Presiune Umiditate
    00:00 +14°C° 0 mm 0 m/s 753 mmHg 74%
    01:00 +14°C° 0 mm 0 m/s 753 mmHg 75%
    02:00 +13°C° 0 mm 0 m/s 753 mmHg 76%
    03:00 +13°C° 0 mm 0 m/s 753 mmHg 77%
    04:00 +13°C° 0 mm 0 m/s 753 mmHg 76%
    05:00 +14°C° 0 mm 0 m/s 753 mmHg 75%
    06:00 +14°C° 0 mm 0 m/s 753 mmHg 74%
    07:00 +18°C° 0 mm 1 m/s 753 mmHg 67%
    08:00 +20°C° 0 mm 1 m/s 753 mmHg 59%
    09:00 +22°C° 0 mm 1 m/s 753 mmHg 52%
    10:00 +23°C° 0 mm 1 m/s 753 mmHg 48%
    11:00 +24°C° 0 mm 1 m/s 753 mmHg 44%
    12:00 +26°C° 0 mm 2 m/s 753 mmHg 40%
    13:00 +26°C° 0 mm 2 m/s 752 mmHg 39%
    14:00 +27°C° 0 mm 2 m/s 752 mmHg 37%
    15:00 +27°C° 0 mm 2 m/s 752 mmHg 36%
    16:00 +27°C° 0 mm 2 m/s 751 mmHg 39%
    17:00 +26°C° 0 mm 1 m/s 751 mmHg 43%
    18:00 +25°C° 0 mm 1 m/s 751 mmHg 46%
    19:00 +24°C° 0 mm 1 m/s 751 mmHg 49%
    20:00 +22°C° 0 mm 1 m/s 751 mmHg 52%
    21:00 +21°C° 0 mm 1 m/s 751 mmHg 55%
    22:00 +20°C° 0 mm 1 m/s 751 mmHg 56%
    23:00 +20°C° 0 mm 1 m/s 751 mmHg 58%

    Mâine, 21 August, Marţi

    Timp Temperatura Precipitaţii Vânt Presiune Umiditate
    00:00 +19°C° 0 mm 1 m/s 751 mmHg 59%
    01:00 +19°C° 0 mm 1 m/s 751 mmHg 60%
    02:00 +18°C° 0 mm 1 m/s 751 mmHg 61%
    03:00 +17°C° 0 mm 2 m/s 751 mmHg 63%
    04:00 +17°C° 0 mm 2 m/s 751 mmHg 64%
    05:00 +17°C° 0 mm 2 m/s 751 mmHg 65%
    06:00 +17°C° 0 mm 2 m/s 751 mmHg 66%
    07:00 +19°C° 0 mm 2 m/s 751 mmHg 59%
    08:00 +22°C° 0 mm 3 m/s 751 mmHg 53%
    09:00 +25°C° 0 mm 3 m/s 751 mmHg 47%
    10:00 +26°C° 0 mm 4 m/s 750 mmHg 43%
    11:00 +27°C° 0 mm 4 m/s 750 mmHg 40%
    12:00 +28°C° 0 mm 5 m/s 750 mmHg 36%
    13:00 +29°C° 0 mm 5 m/s 749 mmHg 35%
    14:00 +29°C° 0 mm 5 m/s 749 mmHg 34%
    15:00 +29°C° 0 mm 5 m/s 749 mmHg 34%
    16:00 +28°C° 0 mm 4 m/s 748 mmHg 38%
    17:00 +27°C° 0 mm 4 m/s 748 mmHg 41%
    18:00 +26°C° 0 mm 3 m/s 748 mmHg 45%
    19:00 +25°C° 0 mm 3 m/s 748 mmHg 47%
    20:00 +22°C° 0 mm 3 m/s 748 mmHg 49%
    21:00 +21°C° 0 mm 3 m/s 748 mmHg 51%
    22:00 +21°C° 0 mm 3 m/s 747 mmHg 50%
    23:00 +20°C° 0 mm 3 m/s 747 mmHg 50%

    Poimâine, 22 August, Miercuri

    Timp Temperatura Precipitaţii Vânt Presiune Umiditate
    00:00 +20°C° 0 mm 4 m/s 747 mmHg 50%
    01:00 +20°C° 0 mm 4 m/s 747 mmHg 49%
    02:00 +19°C° 0 mm 4 m/s 747 mmHg 48%
    03:00 +19°C° 0 mm 4 m/s 746 mmHg 47%
    04:00 +19°C° 0 mm 4 m/s 746 mmHg 47%
    05:00 +19°C° 0 mm 4 m/s 746 mmHg 48%
    06:00 +19°C° 0 mm 4 m/s 746 mmHg 48%
    07:00 +19°C° 0,3 mm 4 m/s 746 mmHg 53%
    08:00 +20°C° 0,3 mm 4 m/s 746 mmHg 57%
    09:00 +20°C° 0,3 mm 4 m/s 747 mmHg 62%
    10:00 +20°C° 0,8 mm 4 m/s 747 mmHg 67%
    11:00 +20°C° 0,8 mm 4 m/s 747 mmHg 73%
    12:00 +19°C° 0,8 mm 3 m/s 747 mmHg 78%
    13:00 +20°C° 0,2 mm 4 m/s 747 mmHg 69%
    14:00 +22°C° 0,2 mm 4 m/s 747 mmHg 60%
    15:00 +23°C° 0,2 mm 4 m/s 747 mmHg 50%
    16:00 +22°C° 0 mm 4 m/s 748 mmHg 52%
    17:00 +21°C° 0 mm 4 m/s 748 mmHg 54%
    18:00 +21°C° 0 mm 4 m/s 748 mmHg 55%
    19:00 +19°C° 0 mm 4 m/s 749 mmHg 59%
    20:00 +18°C° 0 mm 3 m/s 749 mmHg 62%
    21:00 +16°C° 0 mm 3 m/s 750 mmHg 66%
    22:00 +16°C° 0 mm 3 m/s 750 mmHg 66%
    23:00 +14°C° 0 mm 3 m/s 750 mmHg 66%

    23 August, Joi

    Timp Temperatura Precipitaţii Vânt Presiune Umiditate
    00:00 +13°C° 0 mm 3 m/s 751 mmHg 65%
    01:00 +13°C° 0 mm 3 m/s 751 mmHg 68%
    02:00 +12°C° 0 mm 3 m/s 751 mmHg 70%
    03:00 +12°C° 0 mm 3 m/s 752 mmHg 72%
    04:00 +12°C° 0 mm 3 m/s 752 mmHg 72%
    05:00 +13°C° 0 mm 2 m/s 752 mmHg 73%
    06:00 +13°C° 0 mm 2 m/s 753 mmHg 73%
    07:00 +13°C° 0 mm 3 m/s 753 mmHg 65%
    08:00 +16°C° 0 mm 3 m/s 753 mmHg 57%
    09:00 +18°C° 0 mm 4 m/s 754 mmHg 49%
    10:00 +19°C° 0 mm 4 m/s 754 mmHg 45%
    11:00 +20°C° 0 mm 4 m/s 754 mmHg 42%
    12:00 +21°C° 0 mm 4 m/s 754 mmHg 39%
    13:00 +21°C° 0 mm 4 m/s 754 mmHg 38%
    14:00 +21°C° 0 mm 4 m/s 754 mmHg 38%
    15:00 +22°C° 0 mm 4 m/s 754 mmHg 37%
    16:00 +21°C° 0 mm 3 m/s 754 mmHg 42%
    17:00 +20°C° 0 mm 3 m/s 754 mmHg 46%
    18:00 +19°C° 0 mm 2 m/s 754 mmHg 50%
    19:00 +18°C° 0 mm 2 m/s 754 mmHg 54%
    20:00 +16°C° 0 mm 2 m/s 754 mmHg 58%
    21:00 +15°C° 0 mm 2 m/s 754 mmHg 62%
    22:00 +14°C° 0 mm 1 m/s 755 mmHg 64%
    23:00 +14°C° 0 mm 1 m/s 755 mmHg 65%

    24 August, Vineri

    Timp Temperatura Precipitaţii Vânt Presiune Umiditate
    00:00 +13°C° 0 mm 1 m/s 755 mmHg 67%
    01:00 +13°C° 0 mm 1 m/s 755 mmHg 68%
    02:00 +13°C° 0 mm 1 m/s 755 mmHg 69%
    03:00 +12°C° 0 mm 1 m/s 755 mmHg 70%
    04:00 +12°C° 0 mm 1 m/s 755 mmHg 70%
    05:00 +13°C° 0 mm 1 m/s 755 mmHg 70%
    06:00 +13°C° 0 mm 1 m/s 755 mmHg 70%
    07:00 +15°C° 0 mm 1 m/s 755 mmHg 62%
    08:00 +18°C° 0 mm 1 m/s 755 mmHg 55%
    09:00 +20°C° 0 mm 1 m/s 755 mmHg 48%
    10:00 +20°C° 0 mm 2 m/s 755 mmHg 44%
    11:00 +21°C° 0 mm 2 m/s 755 mmHg 39%
    12:00 +23°C° 0 mm 2 m/s 755 mmHg 35%
    13:00 +24°C° 0 mm 2 m/s 754 mmHg 34%
    14:00 +24°C° 0 mm 2 m/s 754 mmHg 33%
    15:00 +25°C° 0 mm 2 m/s 754 mmHg 32%
    16:00 +24°C° 0 mm 2 m/s 754 mmHg 37%
    17:00 +23°C° 0 mm 2 m/s 754 mmHg 41%
    18:00 +21°C° 0 mm 2 m/s 753 mmHg 45%
    19:00 +20°C° 0 mm 2 m/s 754 mmHg 49%
    20:00 +18°C° 0 mm 2 m/s 754 mmHg 52%
    21:00 +18°C° 0 mm 1 m/s 754 mmHg 55%
    22:00 +16°C° 0 mm 1 m/s 754 mmHg 57%
    23:00 +16°C° 0 mm 1 m/s 754 mmHg 59%

    25 August, Sâmbătă

    Timp Temperatura Precipitaţii Vânt Presiune Umiditate
    00:00 +15°C° 0 mm 1 m/s 754 mmHg 62%
    01:00 +15°C° 0 mm 1 m/s 754 mmHg 63%
    02:00 +15°C° 0 mm 1 m/s 754 mmHg 65%
    03:00 +14°C° 0 mm 1 m/s 754 mmHg 67%
    04:00 +14°C° 0 mm 1 m/s 754 mmHg 68%
    05:00 +14°C° 0 mm 1 m/s 754 mmHg 69%
    06:00 +15°C° 0 mm 1 m/s 754 mmHg 69%
    07:00 +18°C° 0 mm 1 m/s 754 mmHg 63%
    08:00 +20°C° 0 mm 1 m/s 754 mmHg 57%
    09:00 +22°C° 0 mm 1 m/s 754 mmHg 51%
    10:00 +23°C° 0 mm 1 m/s 754 mmHg 47%
    11:00 +24°C° 0 mm 1 m/s 754 mmHg 43%
    12:00 +26°C° 0 mm 1 m/s 753 mmHg 39%
    13:00 +26°C° 0 mm 1 m/s 753 mmHg 38%
    14:00 +27°C° 0 mm 2 m/s 753 mmHg 37%
    15:00 +27°C° 0 mm 2 m/s 752 mmHg 36%
    16:00 +26°C° 0 mm 2 m/s 752 mmHg 39%
    17:00 +25°C° 0 mm 2 m/s 752 mmHg 43%
    18:00 +25°C° 0 mm 2 m/s 752 mmHg 47%
    19:00 +23°C° 0 mm 2 m/s 752 mmHg 51%
    20:00 +21°C° 0 mm 2 m/s 752 mmHg 55%
    21:00 +19°C° 0 mm 2 m/s 752 mmHg 58%
    22:00 +19°C° 0 mm 2 m/s 752 mmHg 61%
    23:00 +19°C° 0 mm 1 m/s 752 mmHg 64%
    Arată mai mult